A880 GB
ephemeris date magn radius delta ra dec elong phase
Today21 May 202412.93.090 AU3.029 AU09h30m+03°29'83.9°19.0°
Opposition20 Apr 202511.93.493 AU2.489 AU13h51m-13°09'178.4°0.5°
A880 GB - 2024-05-21
astro.vanbuitenen.nl


 
-1 year
-1 month
-1 day
Now
+1 day
+1 month
+1 year

The interactive orbit chart above shows the body's path through the solar system and its position at the given date. Green and blue lines are shown perpendicular to the ecliptic plane: Green if the path is above the ecliptic plane, blue if it is below. (Left-click and drag to rotate the view; Right-click and drag to move the view; Use scroll wheel to zoom in our out.)

The orbital elements of A880 GB are:

            e (Eccentricity)                : 0.2514825
            a (Semimajor axis)              : 2.7945945
            i (Inclination)                 : 13.11632
            Ω (Longitude of ascending node) : 215.32361
            ω (Argument of perihelion)      : 179.79323
            M (Mean anomaly)                : 324.42774
            Epoch                           : 2022 Aug 09

            L (Longitude of perihelion)     : 215.12223
            B (Latitude of perihelion)      : 0.04692
            P (Orbital period in years)     : 4.67            
        

The light curve chart below shows the estimated development of the minor planet's magnitude.


The all-sky chart below shows the path of the minor planet over the same period as the light curve. The current position is marked yellow.





The following chart shows the path of the minor planet in the next few days. The field of view is optimized for (~10x50) binoculars and finderscopes. A more printer-friendly version of the same chart can be found below.




Ephemerides:
Date       Time       RA (2000)    DEC (2000)    delta   radius  elong  phase   PA    magn
2024-05-21 00:00 UT   09 30 55.3   +03 29 57     3.029    3.090   83.9   19.0   110   12.9 
2024-05-21 10:41 UT   09 31 18.6   +03 30 00     3.036    3.091   83.6   19.0   110   12.9 
2024-05-22 00:00 UT   09 31 47.8   +03 30 02     3.044    3.092   83.2   19.0   110   12.9 
2024-05-23 00:00 UT   09 32 40.9   +03 30 01     3.060    3.094   82.4   18.9   110   12.9 
2024-05-24 00:00 UT   09 33 34.7   +03 29 53     3.076    3.096   81.7   18.9   110   12.9 
2024-05-25 00:00 UT   09 34 29.0   +03 29 38     3.091    3.098   81.0   18.8   111   13.